Regional Weather Roundup
Issued by NWS

Home | Current Version | Previous Version | Text Only | Print | Product List | Glossary On
Versions: 1 2 3 4 5 6 7 8 9 10 11 12 13 14 15 16 17 18 19 20 21 22 23 24 25 26 27
000
ASUS42 KKEY 252210
RWRKEY

FLORIDA REGIONAL WEATHER ROUNDUP FOR THE FLORIDA KEYS
NATIONAL WEATHER SERVICE KEY WEST FLORIDA
600 PM EDT SUN JUN 25 2017

...SOUTH FLORIDA AND THE KEYS...

CITY           SKY/WX    TMP DP  RH WIND       PRES   REMARKS
FORT MYERS     PTSUNNY   83  76  79 N10       30.04R HX  91
SW REGIONAL AP MOSUNNY   86  74  67 N10       30.04S HX  94
NAPLES         MOSUNNY   88  74  63 W10       30.04S HX  96
MIAMI          MOSUNNY   89  73  59 E10       30.06F HX  97
WEST KENDALL   SUNNY     88  72  58 SE12      30.05F HX  94
HOMESTEAD      SUNNY     87  76  70 SE9       30.05F HX  98
MARATHON       MOSUNNY   86  77  74 SE8       30.05F HX  97
BOCA CHICA NAS MOSUNNY   85  77  77 E16       30.04F HX  95
KEY WEST INTL  MOSUNNY   87  76  69 E15       30.04F HX  97

...INTERNATIONAL WEATHER...

CITY           SKY/WX    TMP DP  RH WIND       PRES   REMARKS
NASSAU BAHAMAS MOSUNNY   91  75  59 E6        30.08F HX 102
CANCUN MEXICO  PTSUNNY   86  77  74 E9        29.99F HX  97
COZUMEL MEXICO MOSUNNY   86  75  70 SE10      29.97S HX  95

ADJACENT COASTAL WATERS...

STATION/POSITION TIME  SKY/WX   TEMP    WIND        PRES    WAVE
                                AIR SEA DIR/SP/G            HT/PER
                 (UTC)          (F)     (DEG/KT/KT) (MB)    (FT/S)
PULASKI SHOAL LI 2200            85     110/  7/  8 1017.3F
SAND KEY         2150            83     120/ 14/ 16 1017.6F
LONG KEY         2100            83      90/  9     1017.9
MOLASSES REEF    2200            83 84  120/ 10/ 11 1018.0F
FOWEY ROCKS      2200            83 84   90/  8/  9 1018.5F
Buoy 42097       2130               83                N/A     2/ 4

$$




USA.gov is the U.S. government's official web portal to all federal, state and local government web resources and services.